Location: Unspecified
(0.0000°N, 0.0000°E)
Time: 03:59:14
(UTC+02:00)

Cosmos 1125 Rocket - Visible Passes

Search period start: 17 October 2017 00:00
Search period end: 27 October 2017 00:00
Orbit: 757 x 781 km, 74.0° (Epoch: 16 October)

Date Brightness Start Highest point End Pass type
(mag) Time Alt. Az. Time Alt. Az. Time Alt. Az.
17 Oct 5.4 05:34:17 10° SSE 05:38:40 27° ESE 05:43:02 10° NE visible
17 Oct 4.9 07:17:10 10° WSW 07:20:27 17° WNW 07:23:43 10° NW visible
18 Oct 6.4 04:59:32 10° SE 05:01:58 13° ESE 05:04:23 10° ENE visible
18 Oct 4.0 06:39:05 10° SW 06:43:45 34° WNW 06:48:26 10° NNW visible
19 Oct 3.3 06:01:53 10° SSW 06:07:03 71° WNW 06:12:15 10° N visible
20 Oct 5.8 05:34:44 14° NNE 05:34:44 14° NNE 05:35:29 10° NNE visible
